This is the latest recevied weather packets stored in our database for station/object SP2WPY-13. If no packets are shown the sender has not sent any weather packets the latest 10 day(s).
| Time | Temp. | Humidity | Pressure | Rain* | Wind** | Luminosity | Snow |
|---|---|---|---|---|---|---|---|
| 1787595603 | 16.67° C | 100% | 1023.5 hPa | - | - | - | - |
| 1787595329 | 16.67° C | 100% | 1023.4 hPa | - | - | - | - |
| 1787595010 | 17.22° C | 100% | 1023.4 hPa | - | - | - | - |
| 1787594735 | 17.22° C | 100% | 1023.3 hPa | - | - | - | - |
| 1787594416 | 17.22° C | 100% | 1023.3 hPa | - | - | - | - |
| 1787594142 | 17.78° C | 100% | 1023.3 hPa | - | - | - | - |
| 1787593822 | 18.33° C | 100% | 1023.3 hPa | - | - | - | - |
| 1787593502 | 18.89° C | 95% | 1023.2 hPa | - | - | - | - |
| 1787593228 | 18.89° C | 93% | 1023.2 hPa | - | - | - | - |
| 1787592909 | 20° C | 90% | 1023.2 hPa | - | - | - | - |
| 1787592634 | 20.56° C | 89% | 1023.1 hPa | - | - | - | - |
| 1787592315 | 20.56° C | 88% | 1023.1 hPa | - | - | - | - |
| 1787592040 | 21.11° C | 86% | 1023.1 hPa | - | - | - | - |
| 1787591721 | 21.11° C | 86% | 1023 hPa | - | - | - | - |
| 1787591402 | 21.67° C | 84% | 1023 hPa | - | - | - | - |
| 1787591127 | 21.67° C | 83% | 1023 hPa | - | - | - | - |
| 1787590806 | 21.67° C | 84% | 1023.1 hPa | - | - | - | - |
| 1787590533 | 21.67° C | 84% | 1023.1 hPa | - | - | - | - |
| 1787590212 | 21.67° C | 84% | 1023.1 hPa | - | - | - | - |
| 1787589939 | 21.67° C | 85% | 1023.1 hPa | - | - | - | - |
| 1787589618 | 21.67° C | 83% | 1023.1 hPa | - | - | - | - |
| 1787589345 | 21.67° C | 83% | 1023.1 hPa | - | - | - | - |
| 1787589025 | 21.67° C | 84% | 1023.1 hPa | - | - | - | - |
| 1787588705 | 21.11° C | 83% | 1023.1 hPa | - | - | - | - |
| 1787588432 | 21.11° C | 84% | 1023.2 hPa | - | - | - | - |
* Rain since midnight (hover to see other rain measurements)
** Current wind speed in m/s (hover to see current wind gust speed)